,,PA_Meas_PMT16A,,PR_Meas_QMR101_102,,RH_Meas_QMH101,,SR_Meas_QMS101,,TA_Meas_QMH101,,GenWind,,GenWind,
time,status,PA,status,PR,status,RH,status,SR,status,TA,status,DirAvg,status,SpdAvg,
2013-03-10, 00:00:04,VALID,919.342,VALID,0,VALID,95.4985,VALID,0,VALID,20.2114,VALID,73,VALID,0.792188,
2013-03-10, 00:01:04,VALID,919.293,VALID,0,VALID,95.5062,VALID,0,VALID,20.1919,VALID,73,VALID,0.321484,
2013-03-10, 00:02:04,VALID,919.322,VALID,0,VALID,95.5367,VALID,0,VALID,20.1919,VALID,73,VALID,0.453125,
2013-03-10, 00:03:04,VALID,919.273,VALID,0,VALID,95.529,VALID,0,VALID,20.1919,VALID,73,VALID,0.359375,
2013-03-10, 00:04:04,VALID,919.264,VALID,0,VALID,95.4833,VALID,0,VALID,20.1724,VALID,73,VALID,0.238672,
2013-03-10, 00:05:04,VALID,919.235,VALID,0,VALID,95.468,VALID,0,VALID,20.1529,VALID,73,VALID,0.378516,
2013-03-10, 00:06:04,VALID,919.22,VALID,0,VALID,95.4375,VALID,0,VALID,20.1139,VALID,73,VALID,0.778125,
2013-03-10, 00:07:04,VALID,919.194,VALID,0,VALID,95.468,VALID,0,VALID,20.0928,VALID,73,VALID,0.779297,
2013-03-10, 00:08:04,VALID,919.208,VALID,0,VALID,95.5671,VALID,0,VALID,20.1123,VALID,73,VALID,0.743359,
2013-03-10, 00:09:04,VALID,919.205,VALID,0,VALID,95.6053,VALID,0,VALID,20.1139,VALID,73,VALID,0.701172,
2013-03-10, 00:10:04,VALID,919.165,VALID,0,VALID,95.5976,VALID,0,VALID,20.1139,VALID,73,VALID,0.710938,
2013-03-10, 00:11:04,VALID,919.131,VALID,0,VALID,95.6129,VALID,0,VALID,20.1154,VALID,73,VALID,0.861328,
2013-03-10, 00:12:04,VALID,919.123,VALID,0,VALID,95.5748,VALID,0,VALID,20.0749,VALID,73,VALID,1.05313,
2013-03-10, 00:13:04,VALID,919.082,VALID,0,VALID,95.5824,VALID,0,VALID,20.0553,VALID,73,VALID,1.01914,
2013-03-10, 00:14:04,VALID,919.096,VALID,0,VALID,95.6053,VALID,0,VALID,20.0553,VALID,113,VALID,1.33281,
2013-03-10, 00:15:04,VALID,919.079,VALID,0,VALID,95.6357,VALID,0,VALID,20.0569,VALID,116,VALID,1.34922,
2013-03-10, 00:16:04,VALID,919.105,VALID,0,VALID,95.6434,VALID,0,VALID,20.0358,VALID,125,VALID,1.30703,
2013-03-10, 00:17:04,VALID,919.078,VALID,0,VALID,95.7044,VALID,0,VALID,20.0553,VALID,126,VALID,1.47422,
2013-03-10, 00:18:04,VALID,919.067,VALID,0,VALID,95.7044,VALID,0,VALID,20.0358,VALID,130,VALID,1.14922,
2013-03-10, 00:19:04,VALID,919.062,VALID,0,VALID,95.7425,VALID,0,VALID,20.0358,VALID,141,VALID,0.850781,
2013-03-10, 00:20:04,VALID,918.985,VALID,0,VALID,95.7349,VALID,0,VALID,20.0358,VALID,131,VALID,1.69687,
2013-03-10, 00:21:04,VALID,919.022,VALID,0,VALID,95.7349,VALID,0,VALID,20.0163,VALID,119,VALID,1.21875,
2013-03-10, 00:22:04,VALID,918.947,VALID,0,VALID,95.7425,VALID,0,VALID,20.0163,VALID,119,VALID,1.46719,
2013-03-10, 00:23:04,VALID,918.998,VALID,0,VALID,95.7806,VALID,0,VALID,19.9953,VALID,124,VALID,1.50312,
2013-03-10, 00:24:04,VALID,918.936,VALID,0,VALID,95.8492,VALID,0,VALID,20.0163,VALID,109,VALID,1.17852,
2013-03-10, 00:25:04,VALID,918.96,VALID,0,VALID,95.8568,VALID,0,VALID,19.9968,VALID,102,VALID,0.893359,
2013-03-10, 00:26:04,VALID,918.927,VALID,0,VALID,95.9254,VALID,0,VALID,20.0358,VALID,116,VALID,1.18672,
2013-03-10, 00:27:04,VALID,918.947,VALID,0,VALID,95.9559,VALID,0,VALID,20.0163,VALID,120,VALID,0.997656,
2013-03-10, 00:28:04,VALID,918.948,VALID,0,VALID,95.9712,VALID,0,VALID,20.0163,VALID,122,VALID,1.07656,
2013-03-10, 00:29:04,VALID,918.938,VALID,0,VALID,96.0017,VALID,0,VALID,19.9968,VALID,122,VALID,1.09141,
2013-03-10, 00:30:04,VALID,918.948,VALID,0,VALID,96.0398,VALID,0,VALID,19.9968,VALID,123,VALID,0.941016,
2013-03-10, 00:31:04,VALID,918.962,VALID,0,VALID,96.0627,VALID,0,VALID,19.9968,VALID,128,VALID,0.9,
2013-03-10, 00:32:04,VALID,918.958,VALID,0,VALID,96.0779,VALID,0,VALID,19.9968,VALID,128,VALID,0.526563,
2013-03-10, 00:33:04,VALID,918.947,VALID,0,VALID,96.0932,VALID,0,VALID,19.9773,VALID,134,VALID,0.703125,
2013-03-10, 00:34:04,VALID,918.943,VALID,0,VALID,96.1541,VALID,0,VALID,20.0163,VALID,133,VALID,0.38125,
2013-03-10, 00:35:04,VALID,918.906,VALID,0,VALID,96.1465,VALID,0,VALID,20.0163,VALID,133,VALID,0.380859,
2013-03-10, 00:36:04,VALID,918.903,VALID,0,VALID,96.177,VALID,0,VALID,20.0163,VALID,133,VALID,0.921484,
2013-03-10, 00:37:04,VALID,918.872,VALID,0,VALID,96.1923,VALID,0,VALID,20.0358,VALID,136,VALID,0.951563,
2013-03-10, 00:38:04,VALID,918.842,VALID,0,VALID,96.1923,VALID,0,VALID,20.0163,VALID,136,VALID,0.712109,
2013-03-10, 00:39:04,VALID,918.839,VALID,0,VALID,96.2228,VALID,0,VALID,20.0358,VALID,133,VALID,0.479688,
2013-03-10, 00:40:04,VALID,918.835,VALID,0,VALID,96.2304,VALID,0,VALID,20.0358,VALID,133,VALID,0.188672,
2013-03-10, 00:41:04,VALID,918.826,VALID,0,VALID,96.2228,VALID,0,VALID,20.0358,VALID,133,VALID,0.071875,
2013-03-10, 00:42:04,VALID,918.808,VALID,0,VALID,96.2533,VALID,0,VALID,20.0343,VALID,133,VALID,0.814062,
2013-03-10, 00:43:04,VALID,918.82,VALID,0,VALID,96.2456,VALID,0,VALID,20.0553,VALID,133,VALID,0.61875,
2013-03-10, 00:44:04,VALID,918.779,VALID,0,VALID,96.238,VALID,0,VALID,20.0358,VALID,133,VALID,0.646484,
2013-03-10, 00:45:04,VALID,918.761,VALID,0,VALID,96.2151,VALID,0,VALID,19.9968,VALID,133,VALID,0.690234,
2013-03-10, 00:46:04,VALID,918.722,VALID,0,VALID,96.2151,VALID,0,VALID,20.0163,VALID,133,VALID,0.767578,
2013-03-10, 00:47:04,VALID,918.729,VALID,0,VALID,96.2228,VALID,0,VALID,20.0163,VALID,132,VALID,0.913672,
2013-03-10, 00:48:04,VALID,918.726,VALID,0,VALID,96.2456,VALID,0,VALID,20.0358,VALID,132,VALID,0.621094,
2013-03-10, 00:49:04,VALID,918.711,VALID,0,VALID,96.238,VALID,0,VALID,20.0553,VALID,132,VALID,0.768359,
2013-03-10, 00:50:04,VALID,918.683,VALID,0,VALID,96.2304,VALID,0,VALID,20.0553,VALID,132,VALID,0.694531,
2013-03-10, 00:51:04,VALID,918.681,VALID,0,VALID,96.2075,VALID,0,VALID,20.0553,VALID,132,VALID,0.996094,
2013-03-10, 00:52:04,VALID,918.674,VALID,0,VALID,96.1465,VALID,0,VALID,20.0553,VALID,132,VALID,0.790234,
2013-03-10, 00:53:04,VALID,918.673,VALID,0,VALID,96.0779,VALID,0,VALID,19.9968,VALID,114,VALID,0.941797,
2013-03-10, 00:54:04,VALID,918.649,VALID,0,VALID,95.9788,VALID,0,VALID,19.9383,VALID,114,VALID,0.948828,
2013-03-10, 00:55:04,VALID,918.649,VALID,0,VALID,95.9026,VALID,0,VALID,19.8798,VALID,96,VALID,0.985156,
2013-03-10, 00:56:04,VALID,918.596,VALID,0,VALID,95.9331,VALID,0,VALID,19.8993,VALID,86,VALID,0.994922,
2013-03-10, 00:57:04,VALID,918.584,VALID,0,VALID,95.9559,VALID,0,VALID,19.8798,VALID,86,VALID,0.831641,
2013-03-10, 00:58:04,VALID,918.557,VALID,0,VALID,95.9559,VALID,0,VALID,19.8783,VALID,86,VALID,0.826172,
2013-03-10, 00:59:04,VALID,918.548,VALID,0,VALID,95.9407,VALID,0,VALID,19.8993,VALID,102,VALID,0.807813,
2013-03-10, 01:00:04,VALID,918.519,VALID,0,VALID,95.9331,VALID,0,VALID,19.8993,VALID,102,VALID,0.760938,
2013-03-10, 01:01:04,VALID,918.502,VALID,0,VALID,95.8873,VALID,0,VALID,19.9008,VALID,102,VALID,0.714844,
2013-03-10, 01:02:04,VALID,918.444,VALID,0,VALID,95.834,VALID,0,VALID,19.8798,VALID,102,VALID,0.697266,
2013-03-10, 01:03:04,VALID,918.414,VALID,0,VALID,95.7501,VALID,0,VALID,19.8603,VALID,102,VALID,0.582422,
2013-03-10, 01:04:04,VALID,918.422,VALID,0,VALID,95.712,VALID,0,VALID,19.8603,VALID,102,VALID,0.866016,
2013-03-10, 01:05:04,VALID,918.374,VALID,0,VALID,95.7577,VALID,0,VALID,19.8408,VALID,107,VALID,1.08203,
2013-03-10, 01:06:04,VALID,918.377,VALID,0,VALID,95.773,VALID,0,VALID,19.8423,VALID,117,VALID,1.19805,
2013-03-10, 01:07:04,VALID,918.374,VALID,0,VALID,95.7501,VALID,0,VALID,19.8408,VALID,129,VALID,1.00742,
2013-03-10, 01:08:04,VALID,918.395,VALID,0,VALID,95.7654,VALID,0,VALID,19.8618,VALID,129,VALID,0.982031,
2013-03-10, 01:09:04,VALID,918.374,VALID,0,VALID,95.7196,VALID,0,VALID,19.8408,VALID,114,VALID,0.874219,
2013-03-10, 01:10:04,VALID,918.386,VALID,0,VALID,95.6662,VALID,0,VALID,19.8408,VALID,114,VALID,0.680078,
2013-03-10, 01:11:04,VALID,918.375,VALID,0,VALID,95.7577,VALID,0,VALID,19.8408,VALID,114,VALID,0.776953,
2013-03-10, 01:12:04,VALID,918.367,VALID,0,VALID,95.7501,VALID,0,VALID,19.8603,VALID,119,VALID,0.59375,
2013-03-10, 01:13:04,VALID,918.342,VALID,0,VALID,95.7349,VALID,0,VALID,19.9008,VALID,122,VALID,0.756641,
2013-03-10, 01:14:05,VALID,918.322,VALID,0,VALID,95.773,VALID,0,VALID,19.9188,VALID,122,VALID,0.777344,
2013-03-10, 01:15:05,VALID,918.297,VALID,0,VALID,95.6891,VALID,0,VALID,19.9188,VALID,122,VALID,0.618359,
2013-03-10, 01:16:05,VALID,918.261,VALID,0,VALID,95.651,VALID,0,VALID,19.9188,VALID,122,VALID,0.853516,
2013-03-10, 01:17:05,VALID,918.27,VALID,0,VALID,95.5824,VALID,0,VALID,19.8993,VALID,122,VALID,0.678125,
2013-03-10, 01:18:05,VALID,918.238,VALID,0,VALID,95.5519,VALID,0,VALID,19.8993,VALID,122,VALID,0.565234,
2013-03-10, 01:19:05,VALID,918.255,VALID,0,VALID,95.5138,VALID,0,VALID,19.9398,VALID,122,VALID,0.126172,
2013-03-10, 01:20:05,VALID,918.242,VALID,0,VALID,95.529,VALID,0,VALID,19.9383,VALID,122,VALID,0,
2013-03-10, 01:21:05,VALID,918.203,VALID,0,VALID,95.4909,VALID,0,VALID,19.9383,VALID,122,VALID,0.0429688,
2013-03-10, 01:22:05,VALID,918.223,VALID,0,VALID,95.4909,VALID,0,VALID,19.9383,VALID,122,VALID,0,
2013-03-10, 01:23:05,VALID,918.204,VALID,0,VALID,95.4528,VALID,0,VALID,19.9578,VALID,122,VALID,0,
2013-03-10, 01:24:05,VALID,918.2,VALID,0,VALID,95.4147,VALID,0,VALID,19.9773,VALID,122,VALID,0,
2013-03-10, 01:25:05,VALID,918.183,VALID,0,VALID,95.3689,VALID,0,VALID,19.9773,VALID,122,VALID,0.0835937,
2013-03-10, 01:26:05,VALID,918.189,VALID,0,VALID,95.3156,VALID,0,VALID,19.9968,VALID,122,VALID,0.498047,
2013-03-10, 01:27:05,VALID,918.173,VALID,0,VALID,95.2088,VALID,0,VALID,19.9968,VALID,122,VALID,0.140234,
2013-03-10, 01:28:05,VALID,918.142,VALID,0,VALID,95.1936,VALID,0,VALID,19.9968,VALID,122,VALID,0.412891,
2013-03-10, 01:29:05,VALID,918.137,VALID,0,VALID,95.1326,VALID,0,VALID,20.0163,VALID,122,VALID,0.0382813,
2013-03-10, 01:30:05,VALID,918.124,VALID,0,VALID,95.1097,VALID,0,VALID,20.0358,VALID,122,VALID,0,
2013-03-10, 01:31:05,VALID,918.121,VALID,0,VALID,95.0488,VALID,0,VALID,20.0553,VALID,122,VALID,0,
2013-03-10, 01:32:05,VALID,918.127,VALID,0,VALID,94.881,VALID,0,VALID,20.0749,VALID,122,VALID,0,
2013-03-10, 01:33:05,VALID,918.136,VALID,0,VALID,94.7667,VALID,0,VALID,20.0749,VALID,122,VALID,0.0960938,
2013-03-10, 01:34:05,VALID,918.116,VALID,0,VALID,94.7667,VALID,0,VALID,20.0944,VALID,122,VALID,0.4375,
2013-03-10, 01:35:05,VALID,918.119,VALID,0,VALID,94.8124,VALID,0,VALID,20.1139,VALID,122,VALID,0.136328,
2013-03-10, 01:36:05,VALID,918.092,VALID,0,VALID,94.6371,VALID,0,VALID,20.0944,VALID,122,VALID,0,
2013-03-10, 01:37:05,VALID,918.103,VALID,0,VALID,94.4999,VALID,0,VALID,20.0749,VALID,122,VALID,0,
2013-03-10, 01:38:05,VALID,918.086,VALID,0,VALID,94.2864,VALID,0,VALID,20.0163,VALID,122,VALID,0,
2013-03-10, 01:39:05,VALID,918.094,VALID,0,VALID,94.1111,VALID,0,VALID,19.9578,VALID,122,VALID,0.245312,
2013-03-10, 01:40:05,VALID,918.063,VALID,0,VALID,94.1568,VALID,0,VALID,19.9188,VALID,122,VALID,0,
2013-03-10, 01:41:05,VALID,918.081,VALID,0,VALID,94.1568,VALID,0,VALID,19.8783,VALID,122,VALID,0,
2013-03-10, 01:42:05,VALID,918.077,VALID,0,VALID,94.2483,VALID,0,VALID,19.8603,VALID,122,VALID,0,
2013-03-10, 01:43:05,VALID,918.074,VALID,0,VALID,94.3093,VALID,0,VALID,19.8813,VALID,122,VALID,0,
2013-03-10, 01:44:05,VALID,918.062,VALID,0,VALID,94.4236,VALID,0,VALID,19.8603,VALID,122,VALID,0,
2013-03-10, 01:45:05,VALID,918.025,VALID,0,VALID,94.5227,VALID,0,VALID,19.8798,VALID,122,VALID,0,
2013-03-10, 01:46:05,VALID,918.056,VALID,0,VALID,94.6295,VALID,0,VALID,19.8798,VALID,122,VALID,0,
2013-03-10, 01:47:05,VALID,918.002,VALID,0,VALID,94.7133,VALID,0,VALID,19.8993,VALID,122,VALID,0,
2013-03-10, 01:48:05,VALID,918.032,VALID,0,VALID,94.7667,VALID,0,VALID,19.9188,VALID,122,VALID,0,
2013-03-10, 01:49:05,VALID,918.009,VALID,0,VALID,94.7591,VALID,0,VALID,19.9188,VALID,122,VALID,0,
2013-03-10, 01:50:05,VALID,918.014,VALID,0,VALID,94.7743,VALID,0,VALID,19.9173,VALID,122,VALID,0,
2013-03-10, 01:51:05,VALID,918.009,VALID,0,VALID,94.8505,VALID,0,VALID,19.9383,VALID,122,VALID,0,
2013-03-10, 01:52:05,VALID,917.966,VALID,0,VALID,94.8048,VALID,0,VALID,19.9188,VALID,122,VALID,0,
2013-03-10, 01:53:05,VALID,917.986,VALID,0,VALID,94.9039,VALID,0,VALID,19.9383,VALID,122,VALID,0,
2013-03-10, 01:54:05,VALID,917.982,VALID,0,VALID,94.9268,VALID,0,VALID,19.9578,VALID,122,VALID,0,
2013-03-10, 01:55:05,VALID,917.989,VALID,0,VALID,94.9344,VALID,0,VALID,19.9578,VALID,122,VALID,0,
2013-03-10, 01:56:05,VALID,917.969,VALID,0,VALID,94.8429,VALID,0,VALID,19.9578,VALID,122,VALID,0,
2013-03-10, 01:57:05,VALID,917.938,VALID,0,VALID,94.7896,VALID,0,VALID,19.9773,VALID,122,VALID,0,
2013-03-10, 01:58:05,VALID,917.949,VALID,0,VALID,94.6676,VALID,0,VALID,19.9773,VALID,122,VALID,0,
2013-03-10, 01:59:05,VALID,917.93,VALID,0,VALID,94.477,VALID,0,VALID,19.9968,VALID,122,VALID,0,
2013-03-10, 02:00:05,VALID,917.928,VALID,0,VALID,94.2559,VALID,0,VALID,19.9968,VALID,122,VALID,0,
2013-03-10, 02:01:05,VALID,917.9,VALID,0,VALID,94.0425,VALID,0,VALID,19.9578,VALID,122,VALID,0,
2013-03-10, 02:02:05,VALID,917.919,VALID,0,VALID,93.8138,VALID,0,VALID,19.9368,VALID,122,VALID,0.136719,
2013-03-10, 02:03:05,VALID,917.921,VALID,0,VALID,93.8976,VALID,0,VALID,19.9593,VALID,122,VALID,0.398828,
2013-03-10, 02:04:05,VALID,917.956,VALID,0,VALID,93.8595,VALID,0,VALID,19.9383,VALID,122,VALID,0.4125,
2013-03-10, 02:05:05,VALID,917.923,VALID,0,VALID,93.707,VALID,0,VALID,19.9578,VALID,122,VALID,0.394922,
2013-03-10, 02:06:05,VALID,917.977,VALID,0,VALID,93.6384,VALID,0,VALID,19.9578,VALID,122,VALID,0.249219,
2013-03-10, 02:07:05,VALID,917.965,VALID,0,VALID,93.5393,VALID,0,VALID,19.9773,VALID,122,VALID,0.0140625,
2013-03-10, 02:08:05,VALID,917.952,VALID,0,VALID,93.3716,VALID,0,VALID,19.9953,VALID,122,VALID,0.0996094,
2013-03-10, 02:09:05,VALID,917.942,VALID,0,VALID,93.1353,VALID,0,VALID,20.0163,VALID,122,VALID,0.0328125,
2013-03-10, 02:10:05,VALID,917.946,VALID,0,VALID,92.8913,VALID,0,VALID,20.0553,VALID,122,VALID,0,
2013-03-10, 02:11:05,VALID,917.944,VALID,0,VALID,92.6626,VALID,0,VALID,20.0749,VALID,122,VALID,0.221484,
2013-03-10, 02:12:05,VALID,917.945,VALID,0,VALID,92.4263,VALID,0,VALID,20.0553,VALID,122,VALID,0.600781,
2013-03-10, 02:13:05,VALID,917.915,VALID,0,VALID,92.3043,VALID,0,VALID,20.0358,VALID,122,VALID,0.580469,
2013-03-10, 02:14:05,VALID,917.917,VALID,0,VALID,92.2433,VALID,0,VALID,20.0764,VALID,122,VALID,0.639453,
2013-03-10, 02:15:05,VALID,917.958,VALID,0,VALID,92.2433,VALID,0,VALID,20.0553,VALID,122,VALID,0.517187,
2013-03-10, 02:16:05,VALID,917.952,VALID,0,VALID,92.2967,VALID,0,VALID,20.0553,VALID,122,VALID,0.483594,
2013-03-10, 02:17:05,VALID,917.953,VALID,0,VALID,92.4568,VALID,0,VALID,20.0374,VALID,122,VALID,0.764063,
2013-03-10, 02:18:05,VALID,917.922,VALID,0,VALID,92.6245,VALID,0,VALID,19.9968,VALID,122,VALID,0.841406,
2013-03-10, 02:19:05,VALID,917.919,VALID,0,VALID,92.7693,VALID,0,VALID,19.9968,VALID,122,VALID,0.825,
2013-03-10, 02:20:05,VALID,917.932,VALID,0,VALID,92.7617,VALID,0,VALID,19.9773,VALID,122,VALID,0.861719,
2013-03-10, 02:21:05,VALID,917.95,VALID,0,VALID,92.7465,VALID,0,VALID,19.9968,VALID,122,VALID,0.734375,
2013-03-10, 02:22:05,VALID,917.894,VALID,0,VALID,92.8151,VALID,0,VALID,19.9968,VALID,122,VALID,0.650391,
2013-03-10, 02:23:05,VALID,917.904,VALID,0,VALID,92.9218,VALID,0,VALID,19.9563,VALID,122,VALID,0.586719,
2013-03-10, 02:24:05,VALID,917.883,VALID,0,VALID,93.0819,VALID,0,VALID,19.9773,VALID,124,VALID,0.601563,
2013-03-10, 02:25:05,VALID,917.877,VALID,0,VALID,93.242,VALID,0,VALID,19.9968,VALID,124,VALID,0.705859,
2013-03-10, 02:26:05,VALID,917.847,VALID,0,VALID,93.5088,VALID,0,VALID,19.9593,VALID,128,VALID,0.750781,
2013-03-10, 02:27:05,VALID,917.849,VALID,0,VALID,93.829,VALID,0,VALID,19.9398,VALID,128,VALID,0.896875,
2013-03-10, 02:28:05,VALID,917.858,VALID,0,VALID,94.0958,VALID,0,VALID,19.8798,VALID,128,VALID,0.879687,
2013-03-10, 02:29:05,VALID,917.845,VALID,0,VALID,94.2635,VALID,0,VALID,19.8213,VALID,128,VALID,0.412109,
2013-03-10, 02:30:05,VALID,917.816,VALID,0,VALID,94.4389,VALID,0,VALID,19.8018,VALID,128,VALID,0.648047,
2013-03-10, 02:31:05,VALID,917.815,VALID,0,VALID,94.5609,VALID,0,VALID,19.7628,VALID,128,VALID,0.709766,
2013-03-10, 02:32:05,VALID,917.774,VALID,0,VALID,94.7057,VALID,0,VALID,19.7223,VALID,128,VALID,0.546484,
2013-03-10, 02:33:05,VALID,917.752,VALID,0,VALID,94.7972,VALID,0,VALID,19.7433,VALID,128,VALID,0.586719,
2013-03-10, 02:34:05,VALID,917.733,VALID,0,VALID,94.9268,VALID,0,VALID,19.7238,VALID,128,VALID,0.650781,
2013-03-10, 02:35:05,VALID,917.715,VALID,0,VALID,95.0183,VALID,0,VALID,19.7433,VALID,128,VALID,0.623828,
2013-03-10, 02:36:05,VALID,917.682,VALID,0,VALID,95.0564,VALID,0,VALID,19.7223,VALID,128,VALID,0.585938,
2013-03-10, 02:37:05,VALID,917.694,VALID,0,VALID,95.1174,VALID,0,VALID,19.7433,VALID,128,VALID,0.769922,
2013-03-10, 02:38:05,VALID,917.69,VALID,0,VALID,95.1326,VALID,0,VALID,19.7238,VALID,128,VALID,0.761719,
2013-03-10, 02:39:05,VALID,917.674,VALID,0,VALID,95.1021,VALID,0,VALID,19.7238,VALID,128,VALID,0.612109,
2013-03-10, 02:40:05,VALID,917.706,VALID,0,VALID,95.1326,VALID,0,VALID,19.7238,VALID,128,VALID,0.0277344,
2013-03-10, 02:41:05,VALID,917.682,VALID,0,VALID,95.1783,VALID,0,VALID,19.7433,VALID,128,VALID,0.185156,
2013-03-10, 02:42:05,VALID,917.665,VALID,0,VALID,95.1707,VALID,0,VALID,19.7628,VALID,128,VALID,0.331641,
2013-03-10, 02:43:05,VALID,917.688,VALID,0,VALID,95.125,VALID,0,VALID,19.7433,VALID,128,VALID,0.557031,
2013-03-10, 02:44:05,VALID,917.684,VALID,0,VALID,95.125,VALID,0,VALID,19.7823,VALID,128,VALID,0.464453,
2013-03-10, 02:45:05,VALID,917.676,VALID,0,VALID,95.1021,VALID,0,VALID,19.7823,VALID,128,VALID,0.835938,
2013-03-10, 02:46:05,VALID,917.668,VALID,0,VALID,95.0488,VALID,0,VALID,19.7823,VALID,128,VALID,0.752344,
2013-03-10, 02:47:05,VALID,917.66,VALID,0,VALID,94.9878,VALID,0,VALID,19.8033,VALID,128,VALID,0.816797,
2013-03-10, 02:48:05,VALID,917.651,VALID,0,VALID,94.9725,VALID,0,VALID,19.7628,VALID,128,VALID,0.480469,
2013-03-10, 02:49:05,VALID,917.668,VALID,0,VALID,94.9344,VALID,0,VALID,19.7433,VALID,128,VALID,0.790625,
2013-03-10, 02:50:05,VALID,917.643,VALID,0,VALID,94.942,VALID,0,VALID,19.7433,VALID,128,VALID,0.667188,
2013-03-10, 02:51:05,VALID,917.609,VALID,0,VALID,94.9878,VALID,0,VALID,19.7823,VALID,128,VALID,0.575781,
2013-03-10, 02:52:05,VALID,917.628,VALID,0,VALID,94.9878,VALID,0,VALID,19.8018,VALID,128,VALID,0.292188,
2013-03-10, 02:53:05,VALID,917.564,VALID,0,VALID,94.9039,VALID,0,VALID,19.8018,VALID,128,VALID,0.866406,
2013-03-10, 02:54:05,VALID,917.57,VALID,0,VALID,94.8429,VALID,0,VALID,19.8213,VALID,128,VALID,0.919922,
2013-03-10, 02:55:05,VALID,917.556,VALID,0,VALID,94.8048,VALID,0,VALID,19.8213,VALID,128,VALID,0.855078,
2013-03-10, 02:56:05,VALID,917.568,VALID,0,VALID,94.7591,VALID,0,VALID,19.8213,VALID,128,VALID,0.731641,
2013-03-10, 02:57:05,VALID,917.588,VALID,0,VALID,94.6676,VALID,0,VALID,19.8408,VALID,128,VALID,0.714844,
2013-03-10, 02:58:05,VALID,917.594,VALID,0,VALID,94.6066,VALID,0,VALID,19.9008,VALID,128,VALID,0.514844,
2013-03-10, 02:59:05,VALID,917.568,VALID,0,VALID,94.5151,VALID,0,VALID,19.8993,VALID,128,VALID,0.537891,
2013-03-10, 03:00:05,VALID,917.564,VALID,0,VALID,94.4389,VALID,0,VALID,19.9203,VALID,128,VALID,0.440234,
2013-03-10, 03:01:05,VALID,917.541,VALID,0,VALID,94.2788,VALID,0,VALID,19.8993,VALID,128,VALID,0.504297,
2013-03-10, 03:02:05,VALID,917.551,VALID,0,VALID,94.1568,VALID,0,VALID,19.8813,VALID,128,VALID,0.500781,
2013-03-10, 03:03:05,VALID,917.548,VALID,0,VALID,94.0653,VALID,0,VALID,19.8408,VALID,128,VALID,0.698828,
2013-03-10, 03:04:05,VALID,917.547,VALID,0,VALID,94.1263,VALID,0,VALID,19.8408,VALID,128,VALID,0.529688,
2013-03-10, 03:05:05,VALID,917.515,VALID,0,VALID,94.1721,VALID,0,VALID,19.8213,VALID,128,VALID,0.626953,
2013-03-10, 03:06:05,VALID,917.546,VALID,0,VALID,94.1797,VALID,0,VALID,19.8408,VALID,128,VALID,0.0121094,
2013-03-10, 03:07:05,VALID,917.508,VALID,0,VALID,94.1034,VALID,0,VALID,19.8018,VALID,128,VALID,0.158203,
2013-03-10, 03:08:05,VALID,917.497,VALID,0,VALID,94.0196,VALID,0,VALID,19.7628,VALID,128,VALID,0,
2013-03-10, 03:09:05,VALID,917.492,VALID,0,VALID,93.9129,VALID,0,VALID,19.7418,VALID,128,VALID,0,
2013-03-10, 03:10:05,VALID,917.475,VALID,0,VALID,94.0043,VALID,0.107441,VALID,19.7238,VALID,128,VALID,0,
2013-03-10, 03:11:05,VALID,917.462,VALID,0,VALID,94.1644,VALID,0,VALID,19.7223,VALID,128,VALID,0,
2013-03-10, 03:12:05,VALID,917.432,VALID,0,VALID,94.2483,VALID,0.107441,VALID,19.7628,VALID,128,VALID,0,
2013-03-10, 03:13:05,VALID,917.427,VALID,0,VALID,94.3093,VALID,0,VALID,19.7418,VALID,128,VALID,0.165625,
2013-03-10, 03:14:05,VALID,917.425,VALID,0,VALID,94.3703,VALID,0,VALID,19.7613,VALID,128,VALID,0.244922,
2013-03-10, 03:15:05,VALID,917.445,VALID,0,VALID,94.3169,VALID,0,VALID,19.7808,VALID,128,VALID,0,
2013-03-10, 03:16:05,VALID,917.419,VALID,0,VALID,94.2483,VALID,0,VALID,19.8003,VALID,128,VALID,0,
2013-03-10, 03:17:05,VALID,917.452,VALID,0,VALID,94.1797,VALID,0,VALID,19.8393,VALID,128,VALID,0,
2013-03-10, 03:18:05,VALID,917.412,VALID,0,VALID,93.9891,VALID,0,VALID,19.8588,VALID,128,VALID,0,
2013-03-10, 03:19:05,VALID,917.414,VALID,0,VALID,93.646,VALID,0,VALID,19.8393,VALID,128,VALID,0,
2013-03-10, 03:20:05,VALID,917.41,VALID,0,VALID,93.5469,VALID,0,VALID,19.8198,VALID,128,VALID,0,
2013-03-10, 03:21:05,VALID,917.385,VALID,0,VALID,93.5927,VALID,0.107441,VALID,19.8198,VALID,128,VALID,0,
2013-03-10, 03:22:05,VALID,917.397,VALID,0,VALID,93.6232,VALID,0.107441,VALID,19.8003,VALID,128,VALID,0,
2013-03-10, 03:23:05,VALID,917.387,VALID,0,VALID,93.6384,VALID,0,VALID,19.8198,VALID,128,VALID,0,
2013-03-10, 03:24:05,VALID,917.345,VALID,0,VALID,93.5088,VALID,0.107441,VALID,19.7808,VALID,128,VALID,0,
2013-03-10, 03:25:05,VALID,917.354,VALID,0,VALID,93.4936,VALID,0.107441,VALID,19.7613,VALID,128,VALID,0,
2013-03-10, 03:26:05,VALID,917.353,VALID,0,VALID,93.5851,VALID,0.107441,VALID,19.7223,VALID,128,VALID,0,
2013-03-10, 03:27:05,VALID,917.344,VALID,0,VALID,93.707,VALID,0.107441,VALID,19.7028,VALID,128,VALID,0,
2013-03-10, 03:28:05,VALID,917.345,VALID,0,VALID,93.6918,VALID,0,VALID,19.6848,VALID,128,VALID,0.009375,
2013-03-10, 03:29:05,VALID,917.337,VALID,0,VALID,93.7909,VALID,0,VALID,19.6263,VALID,128,VALID,0.422266,
2013-03-10, 03:30:05,VALID,917.348,VALID,0,VALID,93.89,VALID,0,VALID,19.5873,VALID,128,VALID,0.464453,
2013-03-10, 03:31:05,VALID,917.37,VALID,0,VALID,94.0653,VALID,0,VALID,19.5273,VALID,128,VALID,0.415234,
2013-03-10, 03:32:05,VALID,917.333,VALID,0,VALID,94.2026,VALID,0.107441,VALID,19.5273,VALID,128,VALID,0.457812,
2013-03-10, 03:33:05,VALID,917.357,VALID,0,VALID,94.2864,VALID,0,VALID,19.5093,VALID,128,VALID,0.435156,
2013-03-10, 03:34:05,VALID,917.336,VALID,0,VALID,94.3779,VALID,0.107441,VALID,19.4688,VALID,128,VALID,0.189844,
2013-03-10, 03:35:05,VALID,917.326,VALID,0,VALID,94.416,VALID,0.107441,VALID,19.4688,VALID,128,VALID,0,
2013-03-10, 03:36:05,VALID,917.305,VALID,0,VALID,94.4694,VALID,0.107441,VALID,19.4688,VALID,128,VALID,0,
2013-03-10, 03:37:05,VALID,917.258,VALID,0,VALID,94.5761,VALID,0.107441,VALID,19.4688,VALID,128,VALID,0,
2013-03-10, 03:38:05,VALID,917.265,VALID,0,VALID,94.6066,VALID,0,VALID,19.4883,VALID,128,VALID,0.209766,
2013-03-10, 03:39:05,VALID,917.308,VALID,0,VALID,94.6371,VALID,0,VALID,19.4898,VALID,128,VALID,0.295312,
2013-03-10, 03:40:05,VALID,917.284,VALID,0,VALID,94.6371,VALID,0,VALID,19.4703,VALID,128,VALID,0.345313,
2013-03-10, 03:41:05,VALID,917.266,VALID,0,VALID,94.5761,VALID,0,VALID,19.4508,VALID,128,VALID,0.233984,
2013-03-10, 03:42:05,VALID,917.253,VALID,0,VALID,94.5609,VALID,0,VALID,19.4313,VALID,128,VALID,0.00585938,
2013-03-10, 03:43:05,VALID,917.263,VALID,0,VALID,94.6066,VALID,0,VALID,19.4313,VALID,128,VALID,0,
2013-03-10, 03:44:05,VALID,917.248,VALID,0,VALID,94.6218,VALID,0,VALID,19.4913,VALID,128,VALID,0,
2013-03-10, 03:45:05,VALID,917.214,VALID,0,VALID,94.538,VALID,0,VALID,19.4718,VALID,128,VALID,0,
2013-03-10, 03:46:05,VALID,917.198,VALID,0,VALID,94.5227,VALID,0,VALID,19.4913,VALID,128,VALID,0.489453,
2013-03-10, 03:47:05,VALID,917.184,VALID,0,VALID,94.4846,VALID,0,VALID,19.4898,VALID,128,VALID,0.699609,